Location: Strohbehn Observatory
(42.4649°N, 93.8239°W)
Time: 05:17:36
(UTC-05:00)

Daily predictions for brighter satellites

Satellite Brightness Start Highest point End
(mag) Time Altitude Azimuth Time Altitude Azimuth Time Altitude Azimuth
SL-8 R/B 4.3 00:01:50 10° WNW 00:06:36 55° NNE 00:08:29 33° ENE
Cosmos 1741 Rocket 3.9 00:08:10 70° S 00:08:46 81° ESE 00:14:06 10° NNE
SL-23 DEB 4.1 00:03:52 10° WSW 00:09:10 65° N 00:12:11 10° NE
H-2A R/B 3.4 00:09:27 23° WSW 00:10:40 26° W 00:14:51 10° NW
Meteor 2-5 Rocket 3.8 00:11:10 58° SE 00:12:01 66° E 00:17:47 10° NNE
Cosmos 1842 Rocket 4.0 00:14:32 10° NNW 00:18:45 51° W 00:18:45 51° W
Terra 3.6 00:18:26 20° WSW 00:19:21 21° W 00:22:59 10° NW
Cosmos 1092 Rocket 4.0 00:17:39 50° SSW 00:19:27 78° W 00:25:47 10° N
Cosmos 1656 Rocket 3.5 00:15:33 10° NNW 00:21:17 89° ENE 00:22:04 68° SSE
Cosmos 1733 3.9 00:17:24 10° N 00:20:29 52° NNE 00:20:29 52° NNE
Cosmos 1570 Rocket 4.2 00:18:17 10° NNW 00:23:32 58° WSW 00:24:00 56° SW
Cosmos 1850 Rocket 4.2 00:26:27 56° WSW 00:27:23 68° WNW 00:32:37 10° NNE
CZ-2C R/B 4.1 00:30:18 10° NE 00:34:41 24° E 00:34:45 24° E
NOSS 3-2 (C) 3.9 00:35:49 43° ESE 00:35:49 43° ESE 00:41:53 10° NE
S3M 4.3 00:30:17 10° N 00:36:25 55° ENE 00:37:39 47° ESE
BREEZE-M DEB (TANK) 4.4 00:15:01 10° WSW 00:37:18 75° NNW 00:42:08 10° ENE
Cosmos 1470 3.8 00:34:57 10° NNW 00:37:54 41° NW 00:37:54 41° NW
Cosmos 2369 Rocket 4.4 00:37:02 10° WNW 00:38:48 11° W 00:40:04 11° WSW
Cosmos 1689 Rocket 4.3 00:40:50 29° N 00:40:50 29° N 00:42:34 10° N
CZ-4C R/B 2.6 00:40:01 46° E 00:40:01 46° E 00:45:08 10° NE
Cosmos 1655 Rocket 3.9 00:38:30 62° S 00:39:40 82° E 00:45:57 10° N
Atlas Centaur 2 4.3 00:37:19 10° WSW 00:40:54 23° SW 00:40:54 23° SW
Helios 1A Rocket 3.9 00:41:21 10° NNE 00:44:16 39° NE 00:44:16 39° NE
COSMOS 2487 3.9 00:50:23 37° NNW 00:50:23 37° NNW 00:52:55 10° N
Cosmos 468 Rocket 4.1 00:45:44 10° NNW 00:51:00 65° ENE 00:51:25 62° E
Cosmos 1428 Rocket 4.4 00:51:42 60° SE 00:52:34 68° E 00:58:43 10° NNE
Cosmos 1766 Rocket 3.8 00:54:16 65° NE 00:54:16 65° NE 00:58:13 10° NNE
Meteor 1-16 Rocket 4.2 00:50:26 10° NNW 00:56:01 72° W 00:56:33 67° SW
Cosmos 1814 Rocket 4.1 00:51:00 10° NNW 00:56:15 64° ENE 00:56:45 60° E
Cosmos 405 Rocket 3.9 01:00:15 38° NE 01:00:15 38° NE 01:02:49 10° NNE
Cosmos 1340 4.3 00:59:47 30° WNW 00:59:47 30° WNW 01:02:39 10° N
Cosmos 1328 Rocket 4.2 01:00:45 10° N 01:04:37 48° ENE 01:04:37 48° ENE
H-2A R/B 3.3 01:03:17 10° N 01:06:20 41° NW 01:06:20 41° NW
Landsat 5 4.2 01:08:06 44° NW 01:08:06 44° NW 01:11:03 10° NNW
Cosmos 2278 3.8 01:02:09 10° NNW 01:07:48 69° ENE 01:08:40 59° ESE
Cosmos 2221 3.5 01:05:05 10° NNW 01:08:31 40° WNW 01:08:31 40° WNW
Cosmos 1486 Rocket 4.0 01:09:38 65° E 01:09:38 65° E 01:14:40 10° NNE
Cosmos 1980 Rocket 4.5 01:05:54 10° N 01:09:44 18° NE 01:13:32 10° E
Cosmos 1818 3.8 01:05:04 10° NNW 01:10:32 66° NE 01:11:26 56° ESE
Cosmos 1076 Rocket 4.0 01:11:16 55° NW 01:11:16 55° NW 01:14:53 10° N
Cosmos 2026 Rocket 4.3 01:10:43 46° WSW 01:11:59 54° WNW 01:17:56 10° N
Cosmos 2228 Rocket 3.3 01:09:31 10° N 01:13:23 67° N 01:13:23 67° N
Cosmos 1515 Rocket 4.2 01:11:45 10° N 01:15:49 50° ENE 01:15:49 50° ENE
ISS -0.2 01:18:14 10° NW 01:20:27 17° N 01:22:40 10° NE
NOSS 3-2 (A) 3.5 01:19:13 55° SW 01:20:43 80° NW 01:27:27 10° NE
CZ-4B R/B 3.6 01:24:39 23° WNW 01:24:39 23° WNW 01:26:32 10° NNW
Cosmos 2082 Rocket 2.6 01:28:50 47° ESE 01:28:58 47° ESE 01:34:23 10° NE
Cosmos 1697 Rocket 3.8 01:26:00 10° N 01:31:17 38° ENE 01:33:56 25° ESE
Cosmos 1763 Rocket 3.5 01:28:41 10° NNW 01:34:01 74° ENE 01:34:31 68° ESE
ALOS 2 4.3 01:40:13 23° WNW 01:40:13 23° WNW 01:42:56 10° NW
Cosmos 1833 Rocket 3.2 01:40:04 45° ESE 01:40:20 45° ESE 01:45:42 10° NE
PSLV R/B 4.3 01:45:44 65° NE 01:45:44 65° NE 01:49:32 10° N
Cosmos 1867 3.4 01:45:00 78° S 01:45:20 84° ESE 01:50:51 10° NE
Cosmos 883 Rocket 4.4 01:39:01 10° N 01:45:25 88° W 01:46:39 61° S
Aureole 1 Rocket 4.5 01:43:24 10° N 01:47:39 39° ENE 01:49:39 29° ESE
USA 215 4.0 01:44:28 10° ENE 01:50:17 33° SE 01:50:36 33° SE
Cosmos 1354 Rocket 3.8 01:54:49 77° S 01:55:12 87° ESE 02:00:33 10° NNE
Cosmos 1674 3.6 01:57:00 46° NE 01:57:00 46° NE 01:59:50 10° NNE
CZ-2C R/B 3.1 01:55:22 66° SSE 01:56:12 87° ENE 02:01:55 10° NNW
Cosmos 1726 4.4 01:56:35 10° NNE 01:59:10 18° ENE 01:59:41 17° E
USA 32 4.3 01:54:08 10° N 01:59:20 59° E 02:00:13 51° ESE
Cosmos 1503 Rocket 3.9 02:01:51 73° SW 02:02:21 85° WNW 02:07:44 10° NNE
Lacrosse 5 2.9 01:58:15 10° NW 02:03:06 44° NE 02:07:56 10° ESE
Cosmos 1656 3.6 02:01:51 10° NNW 02:07:36 89° WSW 02:08:39 61° SSE
Cosmos 2315 Rocket 3.9 02:05:29 10° N 02:11:49 78° W 02:13:14 55° SSW
Cosmos 841 Rocket 3.6 02:07:21 10° NNW 02:12:30 57° WSW 02:12:30 57° WSW
CZ-2C R/B 3.2 02:09:52 10° N 02:15:12 48° WNW 02:16:17 42° WSW
Cosmos 724 4.2 02:14:16 61° SW 02:15:21 88° WNW 02:21:16 10° NNE
Meteor 2-2 Rocket 4.4 02:11:20 10° NNW 02:16:54 55° W 02:17:35 52° WSW
Cosmos 1151 Rocket 3.4 02:13:49 10° NNW 02:17:28 52° WNW 02:17:28 52° WNW
Cosmos 2058 3.1 02:23:26 63° E 02:23:26 63° E 02:27:31 10° NNE
Cosmos 2322 Rocket 4.1 02:18:42 10° N 02:23:26 27° NE 02:28:08 10° ESE
Cosmos 2151 3.0 02:25:31 70° WNW 02:25:31 70° WNW 02:29:36 10° N
Cosmos 1745 Rocket 4.5 02:23:23 36° SSE 02:25:44 54° E 02:31:54 10° NNE
CENTAUR R/B 2.6 02:24:34 49° S 02:26:01 63° ESE 02:32:44 10° NE
CZ-4C R/B 3.6 02:25:10 20° W 02:28:13 33° NW 02:33:43 10° NNE
Genesis I 4.5 02:26:35 10° NW 02:28:58 32° WNW 02:28:58 32° WNW
Nadezhda 1 Rocket 4.5 02:26:38 10° N 02:32:42 54° ENE 02:35:51 27° SE
Lacrosse 5 rocket 3.7 02:29:49 10° NNW 02:33:30 26° NNE 02:37:18 10° E
Abrixas 4.3 02:36:07 32° NE 02:36:07 32° NE 02:37:59 10° ENE
Meteor 1-11 4.4 02:36:43 46° SSE 02:38:26 70° E 02:44:14 10° NNE
Sich 1 3.2 02:38:33 56° SE 02:39:04 61° E 02:43:27 10° NNE
Cosmos 405 3.8 02:36:12 10° NNW 02:38:53 44° NW 02:38:53 44° NW
Cosmos 2344 4.0 02:37:44 29° WSW 02:41:59 62° NW 02:50:58 10° NNE
IRAS Rocket 4.3 02:37:52 10° NNE 02:43:22 71° ESE 02:44:56 47° S
H-2A R/B 3.4 02:45:24 29° SSE 02:45:26 29° SSE 02:56:15 10° E
PSLV R/B 3.5 02:41:31 10° N 02:46:09 83° WNW 02:46:43 67° SSW
ASTEX 1 3.8 02:44:50 10° N 02:49:37 48° WNW 02:50:22 44° WSW
Cosmos 1437 Rocket 4.3 02:49:58 10° NNW 02:52:28 25° WNW 02:52:28 25° WNW
Cosmos 1980 Rocket 2.1 02:48:45 10° NNW 02:54:24 79° WSW 02:56:36 39° SSE
ISS -0.6 02:55:08 10° NW 02:57:45 21° NNE 03:00:22 10° ENE
CBERS-1 4.4 02:53:31 10° NNE 02:58:33 55° E 03:00:26 35° SSE
Cosmos 1300 2.9 02:55:48 10° NNW 02:59:19 56° WNW 02:59:19 56° WNW
ERS-2 2.0 02:56:08 10° NNE 02:59:52 82° ESE 03:00:00 79° SE
CZ-2D R/B 4.3 02:58:45 10° NE 03:02:11 17° E 03:05:37 10° SE
ADEOS 4.3 02:59:54 10° NNE 03:04:55 45° E 03:07:24 27° SSE
ARIANE 5 R/B 4.2 03:03:02 10° NE 03:07:19 26° E 03:10:37 14° SE
NPP 3.6 03:02:32 10° NNE 03:07:58 81° ESE 03:10:03 39° S
Cosmos 2082 Rocket 3.6 03:10:39 20° W 03:13:16 28° NW 03:18:06 10° N
Cosmos 1697 Rocket 3.4 03:10:09 10° NW 03:15:08 32° WSW 03:15:37 32° WSW
Cosmos 332 Rocket 3.9 03:13:41 10° NNW 03:18:21 52° WSW 03:19:18 44° SW
Cosmos 2242 Rocket 3.7 03:16:19 10° NNW 03:20:38 53° W 03:21:25 46° SW
Meteor 1-4 Rocket 2.8 03:18:19 10° N 03:22:04 68° E 03:23:26 36° SSE
Cosmos 540 Rocket 4.1 03:17:45 10° NW 03:22:26 35° WSW 03:23:04 34° WSW
BREEZE-M DEB (TANK) 3.7 03:20:02 10° WNW 03:23:23 87° NNE 03:35:37 10° ESE
OAO 3 Rocket 4.1 03:23:53 30° SSE 03:23:53 30° SSE 03:27:34 10° ESE
SL-08 R/B 3.3 03:21:53 38° S 03:23:38 68° WSW 03:28:32 10° NNW
Cosmos 1833 Rocket 4.0 03:21:45 20° W 03:24:27 29° NW 03:29:19 10° N
Cosmos 1455 2.5 03:23:17 10° N 03:27:04 64° E 03:28:43 31° SSE
Meteor 2-10 4.0 03:22:18 10° N 03:27:32 85° W 03:30:42 26° S
Cosmos 2181 Rocket 4.2 03:22:48 10° N 03:28:57 67° E 03:34:45 12° SSE
USA 215 3.4 03:27:05 10° NE 03:33:36 72° NW 03:37:56 23° WSW
Cosmos 1726 3.3 03:31:24 10° NNW 03:34:22 27° W 03:34:22 27° W
ATLAS 5 CENTAUR R/B 3.1 03:32:15 20° SSE 03:34:44 31° ESE 03:39:15 10° NE
Cosmos 1633 Rocket 4.0 03:34:04 30° WSW 03:35:05 34° WNW 03:39:09 10° N
Cosmos 2360 4.4 03:30:48 10° NW 03:36:20 52° WSW 03:39:20 26° S
IRS-1C 4.1 03:36:03 10° N 03:41:24 76° WNW 03:44:15 28° SSW
Cosmos 1869 3.2 03:39:53 10° N 03:43:52 87° E 03:46:06 25° S
Lacrosse 5 2.3 03:41:23 10° WNW 03:46:00 37° SW 03:48:16 24° S
Cosmos 1703 Rocket 4.3 03:45:13 10° N 03:49:29 51° ENE 03:53:43 10° SSE
BREEZE-M TANK 2.6 03:45:31 10° W 03:50:38 58° NNW 03:53:07 10° ENE
ATLAS CENTAUR R/B 4.5 03:48:19 10° N 03:51:55 21° NE 03:55:20 10° E
Cosmos 1470 Rocket 4.1 03:51:40 30° SW 03:53:23 44° WNW 03:57:39 10° N
SL-16 R/B 2.1 03:49:06 10° NNW 03:54:45 68° WSW 04:00:21 10° SSE
Cosmos 1626 2.2 03:53:42 34° SSW 03:55:06 62° W 03:58:50 10° N
Cosmos 1703 4.4 03:54:39 26° WSW 03:55:45 30° WNW 03:59:17 10° NNW
Cosmos 1933 Rocket 4.2 03:56:23 28° SW 03:58:06 40° WNW 04:02:16 10° N
Resurs 1-4 Rocket 2.6 03:53:49 10° NNE 03:59:05 58° E 04:03:50 13° S
SL-16 R/B 2.6 03:53:58 10° SSE 04:00:13 82° ENE 04:06:32 10° NNW
Cosmos 968 Rocket 4.3 03:59:07 22° WSW 04:01:47 38° WNW 04:06:34 10° N
Cosmos 2292 Rocket 2.7 04:00:53 36° SSW 04:01:59 70° W 04:05:27 10° N
Cosmos 2074 Rocket 4.4 03:56:53 10° S 04:02:58 62° E 04:09:08 10° NNE
USA 161 2.4 04:05:58 25° WNW 04:05:58 25° WNW 04:07:32 10° NW
Cosmos 2184 Rocket 4.4 04:00:33 10° S 04:06:50 64° E 04:13:06 10° NNE
Cosmos 2322 Rocket 2.4 04:02:20 10° NW 04:07:44 49° WSW 04:13:06 10° S
Cosmos 1271 Rocket 3.6 04:05:11 10° NNW 04:08:31 30° W 04:09:36 25° WSW
Cosmos 1933 3.3 04:04:52 10° N 04:08:55 86° ENE 04:12:54 10° S
EO 1 Del DPAF 3.2 04:06:21 16° S 04:09:20 67° WSW 04:13:14 10° NNW
Cosmos 371 Rocket 4.4 04:06:13 10° NW 04:10:10 25° W 04:11:43 21° SW
SME Rocket 4.4 04:05:32 10° SSE 04:12:09 57° ENE 04:16:42 10° N
Lacrosse 5 rocket 1.5 04:08:44 10° NW 04:13:06 64° SW 04:17:36 10° SSE
Cosmos 1346 3.0 04:11:57 27° SSW 04:13:28 77° WNW 04:16:33 10° N
FALCON 9 R/B 2.4 04:15:17 13° SSE 04:15:17 13° SSE 04:15:53 10° SE
MOS 1-B 4.5 04:08:53 10° NNE 04:14:41 75° ESE 04:20:18 11° S
Spot 4 Rocket 4.4 04:10:41 10° N 04:15:40 50° WNW 04:19:11 19° SW
CENTAUR R/B 3.9 04:11:44 11° W 04:17:12 32° NW 04:23:26 10° NNE
USA 129 3.5 04:18:27 14° NNW 04:18:27 14° NNW 04:18:44 10° NNW
Cosmos 923 Rocket 4.3 04:16:07 10° NNW 04:21:11 48° WSW 04:26:09 10° S
Okean 1-7 3.3 04:16:47 10° N 04:21:12 71° E 04:25:32 10° SSE
Okean O Rocket 2.6 04:20:36 10° NNE 04:24:51 44° E 04:29:04 10° S
H-2A ROCKET BODY 3.4 04:25:48 14° SSW 04:25:48 14° SSW 04:26:57 10° S
Cosmos 304 Rocket 3.8 04:22:03 10° NNW 04:26:50 63° WSW 04:31:35 10° S
Cosmos 1680 Rocket 3.7 04:25:54 10° NNW 04:30:57 51° WSW 04:35:57 10° S
ISS -3.3 04:31:17 10° NW 04:34:33 87° NNE 04:37:49 10° SE
USA 229 DEB 4.3 04:29:21 10° SSW 04:36:04 55° ESE 04:42:51 10° NE
USA 229 4.3 04:29:27 10° SSW 04:36:10 55° ESE 04:42:57 10° NE
Meteor 1-26 Rocket 4.2 04:31:05 10° N 04:36:40 86° W 04:42:11 10° S
IRS-1C Rocket 4.3 04:31:55 10° NNE 04:37:13 72° ESE 04:42:29 10° S
Cosmos 2360 Rocket 2.1 04:33:33 10° NNW 04:39:11 76° WSW 04:44:48 10° SSE
SL-08 ROCKET BODY 4.4 04:34:21 10° S 04:40:23 85° W 04:46:33 10° N
CZ-2D R/B 2.3 04:37:29 10° N 04:42:39 60° WNW 04:47:50 10° SSW
Thor Agena Rocket 3.9 04:39:12 10° SSE 04:44:28 76° ENE 04:49:47 10° N
In-Cosmos 22 Rocket 4.3 04:39:22 10° S 04:44:39 77° E 04:50:03 10° NNE
CZ-4B R/B 3.7 04:40:08 10° NNE 04:45:31 60° ESE 04:50:59 10° S
Cosmos 2221 Rocket 4.2 04:41:25 10° NNW 04:45:37 39° W 04:49:49 10° SSW
ARIANE 5 R/B 3.3 04:41:50 10° N 04:46:31 37° WNW 04:50:59 11° SW
IRS-1D 4.2 04:41:34 10° N 04:46:37 43° WNW 04:51:33 10° SW
Cosmos 389 Rocket 3.4 04:46:05 10° N 04:49:43 54° ENE 04:53:20 10° SSE
GPS 2-05 Rocket1 4.1 04:49:30 13° SW 04:51:49 24° S 04:54:42 10° ESE
Cosmos 2322 3.8 04:46:24 10° NNW 04:52:04 61° WSW 04:57:41 10° S
Cosmos 2219 3.4 04:46:22 10° SSW 04:52:05 78° ESE 04:57:52 10° NNE
CZ-2C R/B 3.6 04:49:23 10° S 04:53:50 70° WSW 04:58:23 10° NNW
SL-24 DEB 4.2 04:51:34 10° N 04:56:14 75° W 05:00:49 10° SSW
BREEZE-M DEB (TANK) 3.6 04:50:19 10° WNW 04:57:17 64° N 05:00:15 10° E
Cosmos 1869 Rocket 4.3 04:54:36 10° SW 04:58:38 36° WNW 05:02:44 10° N
Cosmos 1898 Rocket 3.5 04:57:13 10° SSW 05:02:25 81° WNW 05:07:38 10° NNE
Meteor 2-10 Rocket 3.9 05:00:35 10° N 05:05:37 69° ENE 05:10:45 10° SSE
OAO 3 Rocket 4.0 05:02:19 10° WSW 05:06:26 31° S 05:10:35 10° SE
CZ-4B DEB 4.4 05:00:59 10° NNE 05:06:31 81° ESE 05:12:01 10° SSW
Cosmos 2333 Rocket 4.0 05:05:36 10° N 05:10:55 38° ENE 05:16:13 10° SE
Cosmos 1937 Rocket 3.6 05:06:44 10° SSW 05:12:03 88° ESE 05:17:23 10° NNE
PAYLOAD B 4.3 05:06:40 10° NNE 05:12:12 79° WNW 05:17:42 10° SSW
